Regional Weather Roundup
Issued by NWS Columbia, SC

Home | Current Version | Previous Version | Text Only | Print | Product List | Glossary On
Versions: 1 2 3 4 5 6 7 8 9 10 11 12 13 14 15 16 17 18 19 20 21 22 23 24 25 26 27
000
ASUS42 KCAE 231210
RWRCAE
REGIONAL WEATHER ROUNDUP
NATIONAL WEATHER SERVICE COLUMBIA SC
800 AM EDT THU MAR 23 2017

NOTE: "FAIR" INDICATES FEW OR NO CLOUDS BELOW 12,000 FEET WITH NO
SIGNIFICANT WEATHER AND/OR OBSTRUCTIONS TO VISIBILITY.

NOT ALL STATIONS ARE QUALITY CONTROLLED BY THE NATIONAL
WEATHER SERVICE. USE DATA WITH CAUTION...ESPECIALLY
DEWPOINT OBSERVATIONS.

SCZ001>056-GAZ040-063>065-077-231300-
...UPSTATE SOUTH CAROLINA...

CITY           SKY/WX    TMP DP  RH WIND       PRES   REMARKS
ANDERSON       CLOUDY    46  22  38 NE12      30.46R
6HR MIN TEMP:  46; 6HR MAX TEMP:  52;

LIBERTY        CLOUDY    44  19  37 E9        30.46R
6HR MIN TEMP:  44; 6HR MAX TEMP:  50;

SPARTANBURG    PTCLDY    37  21  52 NE7       30.50R WCI  32
CLEMSON        CLOUDY    47  20  34 NE10      30.48R
6HR MIN TEMP:  47; 6HR MAX TEMP:  55;

GREENVILLE     PTCLDY    43  20  39 NE13      30.49R
6HR MIN TEMP:  43; 6HR MAX TEMP:  50;

GREENWOOD      CLEAR     41  23  48 NE8       30.49R
6HR MIN TEMP:  41; 6HR MAX TEMP:  49;

GREER          PTCLDY    40  20  44 NE7       30.49R
6HR MIN TEMP:  40; 6HR MAX TEMP:  47;

ROCK HILL      CLEAR     39  19  44 NE3       30.52R
6HR MIN TEMP:  36; 6HR MAX TEMP:  47;

CHESTER        SUNNY     36  23  60 NE7       30.53R WCI  30
LAURENS        SUNNY     37  27  65 NE6       30.49R WCI  33


...CENTRAL SOUTH CAROLINA...

CITY           SKY/WX    TMP DP  RH WIND       PRES   REMARKS
COLUMBIA APT   PTCLDY    45  27  49 NE8       30.48R
6HR MIN TEMP:  45; 6HR MAX TEMP:  53;

COLUMBIA OWENS CLEAR     43  27  53 VRB3      30.50R
6HR MIN TEMP:  43; 6HR MAX TEMP:  53;

MCENTIRE ANGB  PTCLDY    41  29  61 NE8       30.48R
6HR MIN TEMP:  41; 6HR MAX TEMP:  50;

ORANGEBURG     CLEAR     45  27  49 NE9       30.45R
6HR MIN TEMP:  45; 6HR MAX TEMP:  52;

SUMTER SHAW    CLEAR     40  30  68 NE9       30.46R WCI  33
6HR MIN TEMP:  38; 6HR MAX TEMP:  51;

NEWBERRY       SUNNY     37  28  70 NE8       30.52R WCI  31
AIKEN          CLOUDY    43  34  70 NE10      30.47R
BARNWELL       FAIR      48  34  57 NE8       30.44R
MANNING        FAIR      41  28  60 E5        30.46R
LANCASTER      MOSUNNY   36  23  60 NE7       30.52R WCI  30
WINNSBORO      CLOUDY    41  28  60 NE10      30.48R


...EASTERN AND COASTAL SOUTH CAROLINA...

CITY           SKY/WX    TMP DP  RH WIND       PRES   REMARKS
MYRTLE BEACH   CLEAR     39  30  70 NE10      30.49R WCI  32
N MYRTLE BCH   CLEAR     39  30  70 NE9       30.48R WCI  33
6HR MIN TEMP:  37; 6HR MAX TEMP:  44;

CONWAY         FAIR      37  28  70 NE10      30.49R HAZE    WCI  30
MARION         FAIR      36  28  75 NE6       30.51R WCI  31
HARTSVILLE     FAIR      37  28  70 NE9       30.50R WCI  31
FLORENCE       CLEAR     37  30  75 NE8       30.51R WCI  31
6HR MIN TEMP:  34; 6HR MAX TEMP:  47;

DARLINGTON     CLEAR     38  30  73 NE5       30.53R WCI  34
6HR MIN TEMP:  36; 6HR MAX TEMP:  46;

CHARLESTON APT CLEAR     47  37  68 NE10      30.42R
6HR MIN TEMP:  46; 6HR MAX TEMP:  54;

MOUNT PLEASANT LGT RAIN  46  39  76 N6        30.42R
WALTERBORO     SUNNY     45  36  70 NE8       30.43R
BEAUFORT       PTCLDY    52  42  69 NE9       30.38R
6HR MIN TEMP:  51; 6HR MAX TEMP:  58;



...EASTERN GEORGIA...

CITY           SKY/WX    TMP DP  RH WIND       PRES   REMARKS
AUGUSTA BUSH F MOCLDY    50  37  61 E10       30.44R
6HR MIN TEMP:  47; 6HR MAX TEMP:  55;

AUGUSTA DANIEL CLOUDY    49  33  54 E10       30.44R
6HR MIN TEMP:  49; 6HR MAX TEMP:  56;

THOMSON        CLOUDY    48  37  65 MISG      30.47S
6HR MIN TEMP:  47; 6HR MAX TEMP:  50;

WASHINGTON     FAIR      46  34  61 E7        30.43R
CLAXTON        FAIR     N/A N/A N/A N9        30.37R
SYLVANIA       MOSUNNY  N/A N/A N/A E6        30.40R
STATESBORO     CLEAR     51  42  71 E5        30.39R
6HR MIN TEMP:  51; 6HR MAX TEMP:  57;

SAVANNAH       PTCLDY    54  42  64 NE13G20   30.36R
6HR MIN TEMP:  54; 6HR MAX TEMP:  59;



...SOUTHERN NORTH CAROLINA...

CITY           SKY/WX    TMP DP  RH WIND       PRES   REMARKS
CHARLOTTE      PTCLDY    38  18  44 NE5       30.52R WCI  34
6HR MIN TEMP:  34; 6HR MAX TEMP:  47;

MONROE         CLEAR     35  20  54 NE8       30.51R WCI  29
6HR MIN TEMP:  35; 6HR MAX TEMP:  45;

WADESBORO      SUNNY     30  25  81 CALM      30.54R
6HR MIN TEMP:  29; 6HR MAX TEMP:  43;

ROCKINGHAM     SUNNY     33  25  71 CALM      30.53R
6HR MIN TEMP:  33; 6HR MAX TEMP:  44;

RUTHERFORDTON  CLEAR     35  20  53 CALM      30.52R
6HR MIN TEMP:  35; 6HR MAX TEMP:  46;

ASHEVILLE      CLEAR     32  25  75 CALM      30.48R
6HR MIN TEMP:  31; 6HR MAX TEMP:  36;


$$




USA.gov is the U.S. government's official web portal to all federal, state and local government web resources and services.